Location: Newark
(45.8378°N, 5.5389°E)
Time: 11:37:23
(UTC+00:00)

YUBILEINY - Pass Details

Date: 21 December 2019
Orbit: 1478 x 1509 km, 82.5° (Epoch: 18 January)

Event Time Altitude Azimuth Distance (km) Brightness Sun altitude
Rises 06:17:02 0° 352° (N) 4,610 ? -9.8°
Reaches altitude 10° 06:20:00 10° 356° (N) 3,628 ? -9.3°
Maximum altitude 06:28:36 59° 75° (ENE) 1,683 ? -8.0°
Drops below altitude 10° 06:37:10 10° 154° (SSE) 3,625 ? -6.7°
Sets 06:40:06 0° 158° (SSE) 4,606 ? -6.2°
